[[{"header":{"parameterUnit":"m.s-1","parameterCategory":1,"la1":30.2991,"la2":30.254,"lo1":-89.0895,"lo2":-89.0444,"dy":0.0017,"dx":0.0017,"nx":28,"ny":28,"refTime":"2024-07-02T21:00:00:Z","depth":0,"parameterNumber":2,"parameterNumberName":"U-component_of_WINDS"},"data":[0,0,0,0,0,0,0,0,0,0,0,0,0,0,0,0,0,0,0,0,0,0,0,0,0,0,0,0,0,0,0,0,0,0,0,0,0,0,0,0,0,0,0,0,0,0,0,0,0,0,0,0,0,0,0,0,0,0,-0.2102,-0.2102,0,-0.2051,-0.205,-0.205,-0.2035,-0.2035,-0.2036,-0.2036,-0.1985,-0.1984,-0.1982,0,0,0,0,0,0,0,0,0,0,0,0,0,-0.219,-0.2188,-0.2102,-0.2102,-0.2101,-0.2051,-0.205,-0.2049,-0.2035,-0.2035,-0.2036,-0.2036,-0.1986,-0.1984,-0.1982,0,0,0,0,0,0,0,0,0,0,0,0,0,-0.2146,-0.2188,-0.2102,-0.2088,-0.2086,-0.2051,-0.205,-0.2049,-0.2035,-0.2035,-0.2036,-0.2036,-0.1987,-0.1984,-0.1982,-0.1958,0,0,-0.1974,-0.1973,0,0,0,0,0,0,0,0,-0.2149,-0.2143,-0.2091,-0.2089,-0.2087,-0.205,-0.2062,-0.2019,-0.2035,-0.2054,-0.2036,-0.2036,-0.2007,-0.2003,-0.1992,-0.1956,-0.1954,-0.1974,-0.1973,-0.1972,-0.1971,0,0,0,0,0,0,0,-0.2152,-0.2145,-0.2082,-0.209,-0.2087,-0.2084,-0.2079,-0.2054,-0.2029,-0.2053,-0.2052,-0.2045,-0.2006,-0.1994,-0.1991,-0.1953,-0.1974,-0.1972,-0.1971,-0.197,-0.1895,-0.1894,0,0,0,0,0,0,-0.2157,-0.2148,-0.2084,-0.208,-0.2119,-0.2082,-0.2076,-0.2061,-0.2029,-0.2024,-0.2045,-0.2045,-0.1998,-0.1994,-0.1989,-0.1959,-0.1972,-0.1969,-0.1968,-0.1895,-0.1895,-0.1894,0,0,0,0,0,0,-0.2159,-0.2152,-0.2086,-0.2114,-0.2105,-0.208,-0.2064,-0.206,-0.2049,-0.2023,-0.2019,-0.2038,-0.1998,-0.1992,-0.1966,-0.1957,-0.1968,-0.1966,-0.1896,-0.1895,-0.1895,-0.19,0,0,0,0,0,0,-0.2162,-0.2152,-0.2143,-0.2114,-0.2104,-0.2063,-0.2063,-0.2059,-0.2044,-0.2044,-0.2016,-0.2012,-0.1998,-0.197,-0.1963,-0.1954,-0.1964,-0.1897,-0.1896,-0.1895,-0.1901,-0.19,-0.1899,0,0,0,0,0,-0.2165,-0.2147,-0.2143,-0.2135,-0.2091,-0.2063,-0.2057,-0.2042,-0.2044,-0.2034,-0.2018,-0.2012,-0.1959,-0.1967,-0.196,-0.195,-0.1897,-0.1896,-0.1895,-0.1901,-0.19,-0.1899,0,0,0,0,0,0,-0.2177,-0.2143,-0.2138,-0.211,-0.2089,-0.206,-0.2048,-0.2041,-0.202,-0.202,-0.2002,-0.1996,-0.1971,-0.1958,-0.1967,-0.1925,-0.1928,-0.1925,-0.1935,-0.1934,-0.1933,-0.1937,-0.1962,0,0,0,0,0,-0.2177,-0.2156,-0.2127,-0.2105,-0.2095,-0.2073,-0.206,-0.205,-0.2028,-0.202,-0.2001,-0.1981,-0.1959,-0.1946,-0.1925,-0.1898,-0.1892,-0.1888,-0.1887,-0.1886,-0.1884,-0.1869,-0.1867,-0.189,-0.189,-0.189,0,0,-0.2176,-0.2154,-0.2142,-0.2107,-0.209,-0.2069,-0.2066,-0.2044,-0.2029,-0.2016,-0.199,-0.1976,-0.1952,-0.1925,-0.1913,-0.1913,-0.1876,-0.1885,-0.1884,-0.1883,-0.1868,-0.1865,-0.1863,-0.1889,-0.189,-0.189,0,0,-0.2163,-0.2144,-0.2124,-0.2106,-0.208,-0.2065,-0.206,-0.2032,-0.2022,-0.1995,-0.1985,-0.1966,-0.193,-0.1913,-0.19,-0.1879,-0.1873,-0.1872,-0.1868,-0.1853,-0.1851,-0.185,-0.1843,-0.184,-0.1871,-0.1871,-0.1871,0,-0.2165,-0.2132,-0.2115,-0.2093,-0.2078,-0.2064,-0.2044,-0.2028,-0.1996,-0.1986,-0.1987,-0.194,-0.1923,-0.1893,-0.1887,-0.1877,-0.1871,-0.1876,-0.1853,-0.1851,-0.1849,-0.1842,-0.1839,-0.1871,-0.1871,-0.1871,-0.1871,0,-0.2136,-0.2114,-0.21,-0.2069,-0.2052,-0.2031,-0.2011,-0.1996,-0.1987,-0.1972,-0.1945,-0.1924,-0.1898,-0.189,-0.1881,-0.1857,-0.1858,-0.1856,-0.1859,-0.1847,-0.184,-0.1838,-0.1871,-0.1871,-0.1871,-0.1871,0,0,-0.2131,-0.2089,-0.2084,-0.207,-0.2039,-0.2021,-0.2,-0.1973,-0.1961,-0.1939,-0.1921,-0.189,-0.1887,-0.1872,-0.1861,-0.1848,-0.1833,-0.1848,-0.1847,-0.1846,-0.1806,-0.1808,-0.1805,-0.1829,-0.1828,-0.1827,-0.1808,0,-0.2115,-0.2074,-0.2057,-0.2025,-0.2004,-0.1991,-0.1972,-0.1951,-0.1936,-0.1917,-0.1901,-0.1879,-0.1877,-0.1868,-0.1855,-0.1838,-0.1825,-0.1839,-0.1812,-0.1811,-0.1819,-0.1801,-0.1803,-0.1786,-0.1805,-0.1804,-0.1804,0,-0.209,-0.2067,-0.2033,-0.2003,-0.1994,-0.1977,-0.1951,-0.1932,-0.1909,-0.1899,-0.1881,-0.1871,-0.1848,-0.1851,-0.1819,-0.1829,-0.1817,-0.1806,-0.1805,-0.1803,-0.1807,-0.1799,-0.178,-0.1777,-0.18,-0.18,-0.18,0,-0.209,-0.205,-0.2024,-0.2012,-0.1978,-0.1966,-0.1951,-0.1927,-0.1912,-0.189,-0.188,-0.1856,-0.1842,-0.1824,-0.1807,-0.1811,-0.1776,-0.1778,-0.1768,-0.1769,-0.1762,-0.1763,-0.1742,-0.1754,-0.1754,-0.1754,-0.1754,0,-0.2074,-0.2053,-0.2024,-0.2008,-0.1985,-0.1965,-0.1943,-0.1927,-0.1906,-0.1887,-0.1874,-0.1856,-0.1835,-0.1815,-0.1802,-0.1777,-0.1771,-0.1763,-0.176,-0.1764,-0.1766,-0.1757,-0.1758,-0.1753,-0.1753,-0.1753,-0.1753,0,-0.207,-0.205,-0.202,-0.1989,-0.1981,-0.1965,-0.1939,-0.1923,-0.1907,-0.1884,-0.1877,-0.1853,-0.1828,-0.1809,-0.1778,-0.1769,-0.1743,-0.1739,-0.1751,-0.1749,-0.174,-0.1742,-0.1713,-0.1709,-0.1723,-0.1723,-0.1723,0,-0.2061,-0.2045,-0.2012,-0.1998,-0.1983,-0.196,-0.1945,-0.1925,-0.1909,-0.188,-0.1868,-0.1842,-0.1821,-0.1782,-0.1762,-0.1738,-0.1734,-0.1726,-0.173,-0.1735,-0.1734,-0.1735,-0.1734,-0.1725,-0.1725,-0.1725,-0.1725,0,-0.2048,-0.2038,-0.2016,-0.1989,-0.197,-0.1949,-0.1927,-0.1917,-0.1893,-0.1876,-0.185,-0.1833,-0.1801,-0.1776,-0.1749,-0.1734,-0.1726,-0.1724,-0.172,-0.1725,-0.1732,-0.1728,-0.175,-0.1725,-0.1725,-0.1725,-0.1725,-0.1725,-0.2042,-0.2026,-0.2,-0.1975,-0.1957,-0.1936,-0.192,-0.1901,-0.1879,-0.1851,-0.184,-0.1814,-0.179,-0.1753,-0.1738,-0.1717,-0.1717,-0.1712,-0.171,-0.171,-0.171,-0.1735,-0.1712,-0.1712,-0.1712,-0.1712,-0.1712,0,-0.2028,-0.201,-0.1987,-0.1957,-0.1937,-0.1929,-0.1905,-0.1889,-0.1866,-0.1843,-0.1822,-0.1793,-0.1768,-0.1745,-0.172,-0.1708,-0.1703,-0.1702,-0.1703,-0.1699,-0.1712,-0.1718,-0.1706,-0.1706,-0.1706,-0.1706,-0.1706,-0.1706,-0.2019,-0.1992,-0.1979,-0.1943,-0.1925,-0.1899,-0.1885,-0.1867,-0.1849,-0.1816,-0.1795,-0.178,-0.1758,-0.173,-0.1707,-0.1701,-0.1692,-0.1692,-0.1685,-0.1698,-0.1698,-0.1699,-0.1705,-0.169,-0.169,-0.1674,-0.1674,-0.1674]},{"header":{"parameterUnit":"m.s-1","parameterCategory":1,"la1":30.2991,"la2":30.254,"lo1":-89.0895,"lo2":-89.0444,"dy":0.0017,"dx":0.0017,"nx":28,"ny":28,"refTime":"2024-07-02T21:00:00:Z","depth":0,"parameterNumber":3,"parameterNumberName":"V-component_of_WINDS"},"data":[0,0,0,0,0,0,0,0,0,0,0,0,0,0,0,0,0,0,0,0,0,0,0,0,0,0,0,0,0,0,0,0,0,0,0,0,0,0,0,0,0,0,0,0,0,0,0,0,0,0,0,0,0,0,0,0,0,0,3.8389,3.8389,0,3.8371,3.8371,3.8371,3.828,3.8278,3.8276,3.8274,3.8257,3.8258,3.826,0,0,0,0,0,0,0,0,0,0,0,0,0,3.8346,3.8347,3.8389,3.8389,3.8389,3.8371,3.8371,3.8371,3.8281,3.8278,3.8275,3.8273,3.8256,3.8258,3.826,0,0,0,0,0,0,0,0,0,0,0,0,0,3.835,3.8348,3.8389,3.8342,3.8337,3.8371,3.8371,3.8371,3.8281,3.8278,3.8275,3.8272,3.8256,3.8258,3.826,3.8339,0,0,3.8267,3.8268,0,0,0,0,0,0,0,0,3.835,3.8352,3.8349,3.8345,3.834,3.8325,3.8349,3.836,3.8282,3.8302,3.8274,3.827,3.8282,3.8282,3.8286,3.8338,3.8337,3.8267,3.8269,3.827,3.827,0,0,0,0,0,0,0,3.835,3.8352,3.8382,3.8349,3.8343,3.8321,3.8318,3.8351,3.8311,3.83,3.8294,3.8293,3.8279,3.8284,3.8285,3.8337,3.8267,3.8269,3.8271,3.8272,3.8453,3.8457,0,0,0,0,0,0,3.8356,3.8352,3.8383,3.8381,3.8337,3.8325,3.8321,3.8333,3.831,3.8303,3.8296,3.8289,3.8281,3.8282,3.8284,3.8374,3.827,3.8272,3.8273,3.845,3.8454,3.8458,0,0,0,0,0,0,3.8356,3.836,3.8383,3.8365,3.8366,3.8329,3.8343,3.8334,3.8339,3.8306,3.8299,3.8308,3.8279,3.828,3.8326,3.8372,3.8273,3.8275,3.8446,3.8451,3.8456,3.8556,0,0,0,0,0,0,3.8355,3.836,3.8389,3.8367,3.8368,3.8426,3.8345,3.8336,3.8343,3.8334,3.8316,3.831,3.8276,3.8323,3.8328,3.8373,3.8277,3.8442,3.8448,3.8454,3.8548,3.8564,3.8577,0,0,0,0,0,3.8353,3.8418,3.8391,3.8395,3.8404,3.8429,3.8429,3.8389,3.8347,3.8376,3.8355,3.831,3.8367,3.8328,3.8333,3.838,3.8438,3.8446,3.8454,3.8542,3.8561,3.8577,0,0,0,0,0,0,3.8448,3.8414,3.8384,3.8443,3.844,3.8413,3.8449,3.8411,3.8419,3.841,3.836,3.8357,3.841,3.84,3.8358,3.8455,3.8395,3.8404,3.846,3.8478,3.8492,3.8493,3.8279,0,0,0,0,0,3.8476,3.8498,3.8468,3.8523,3.8523,3.8487,3.8496,3.8466,3.846,3.8457,3.844,3.8436,3.8453,3.8465,3.8478,3.8547,3.8541,3.8582,3.8596,3.8608,3.8616,3.8651,3.8669,3.8483,3.8483,3.8483,0,0,3.8533,3.8518,3.8535,3.8542,3.8535,3.856,3.8486,3.8515,3.8533,3.8462,3.8503,3.8491,3.8483,3.8541,3.8565,3.8534,3.8667,3.8618,3.8628,3.8629,3.8661,3.8679,3.8694,3.8489,3.8488,3.8487,0,0,3.865,3.8641,3.8686,3.8681,3.8671,3.8647,3.8658,3.8638,3.8626,3.8667,3.8614,3.8635,3.8665,3.8662,3.8664,3.8781,3.874,3.8787,3.8862,3.8897,3.8912,3.8924,3.8965,3.8981,3.8796,3.8796,3.8796,0,3.8722,3.8757,3.8714,3.8746,3.8751,3.8688,3.8733,3.8731,3.8727,3.8731,3.8697,3.8733,3.8723,3.8779,3.8807,3.8812,3.8823,3.8788,3.8913,3.8925,3.8936,3.8975,3.8991,3.8802,3.8801,3.88,3.88,0,3.8847,3.8872,3.8909,3.8906,3.8915,3.8955,3.8917,3.8932,3.8901,3.888,3.8923,3.891,3.8919,3.8931,3.8901,3.8982,3.8963,3.8922,3.8859,3.8961,3.8996,3.901,3.881,3.8808,3.8806,3.8805,0,0,3.9021,3.8994,3.9009,3.9007,3.8993,3.9011,3.9048,3.9057,3.907,3.907,3.9099,3.9126,3.9088,3.9091,3.906,3.9091,3.9184,3.9046,3.9045,3.9071,3.9272,3.9303,3.932,3.9157,3.916,3.9162,3.9272,0,3.9132,3.9192,3.9154,3.922,3.9243,3.9184,3.9216,3.9211,3.9193,3.9209,3.919,3.9209,3.9158,3.9159,3.9187,3.9167,3.9223,3.9158,3.9183,3.9185,3.9186,3.9339,3.9371,3.9476,3.9286,3.9288,3.929,0,3.927,3.9275,3.9343,3.9324,3.9333,3.9362,3.9367,3.9384,3.9377,3.9362,3.9366,3.9328,3.9363,3.9303,3.935,3.9306,3.9314,3.9307,3.931,3.9309,3.9243,3.9342,3.9509,3.9524,3.9312,3.931,3.9308,0,3.9389,3.9414,3.9458,3.9458,3.9437,3.9459,3.9452,3.9442,3.945,3.9455,3.946,3.9469,3.9474,3.9483,3.9449,3.9408,3.95,3.9437,3.9489,3.949,3.951,3.9509,3.9679,3.9517,3.9517,3.9516,3.9516,0,3.9517,3.9561,3.9511,3.9538,3.9585,3.9542,3.959,3.9577,3.9569,3.9592,3.9542,3.9565,3.9519,3.9538,3.9512,3.9555,3.9557,3.9546,3.9538,3.955,3.9551,3.9554,3.9545,3.9521,3.952,3.9519,3.9518,0,3.9658,3.9626,3.967,3.9647,3.9643,3.9679,3.9659,3.9683,3.9662,3.9692,3.9697,3.9664,3.9684,3.9651,3.9666,3.9649,3.9708,3.969,3.971,3.9705,3.9757,3.9753,3.9934,3.9956,3.9781,3.9783,3.9784,0,3.9741,3.9773,3.9753,3.9765,3.9761,3.9781,3.9789,3.9748,3.9758,3.9753,3.9778,3.9793,3.9803,3.9837,3.9815,3.9826,3.9807,3.987,3.9809,3.9819,3.9807,3.9806,3.9809,3.9883,3.9885,3.9887,3.9888,0,3.9891,3.9874,3.9887,3.9895,3.9906,3.991,3.9911,3.9924,3.9881,3.9895,3.9914,3.9922,3.9938,3.9953,3.996,3.9952,3.9913,3.9908,3.992,3.9932,3.9942,3.9936,3.9744,3.9903,3.9902,3.9901,3.99,3.9899,4.0004,4.003,4.0021,4.0037,4.0034,4.0036,4.0057,4.0039,4.0054,4.0063,4.0038,4.0064,4.0056,4.0061,4.0058,4.0077,4.0049,4.0067,4.0072,4.0077,4.0085,3.994,4.0078,4.0078,4.0077,4.0077,4.0077,0,4.0151,4.0142,4.0158,4.0161,4.0174,4.0136,4.0135,4.0149,4.0171,4.0168,4.0178,4.0201,4.0216,4.0195,4.0207,4.0226,4.0209,4.0231,4.0228,4.0227,4.0109,4.0097,4.0245,4.0245,4.0245,4.0245,4.0245,4.0245,4.0229,4.0271,4.0253,4.0293,4.0283,4.0307,4.031,4.0312,4.0308,4.0335,4.0347,4.0334,4.0324,4.0334,4.0347,4.034,4.0347,4.0375,4.0362,4.0252,4.0236,4.022,4.0208,4.0377,4.0377,4.0479,4.048,4.048]}]]